Helicity
50 51 48 47 54 69 64 76 99 86 83 76 88 101 117 99 117 95 89 60 42 31 24 21 7 3 -28 -22 -50 151 55 -15 43 30 50 113 4 -1 26 102 75 118 80 91
44 55 66 54 65 60 78 113 117 91 77 95 93 113 98 91 100 124 104 76 72 34 19 55 -14 8 19 -9 -4 -17 11 83 147 20 36 80 130 18 24 14 39 53 103 102
27 49 60 64 69 66 84 107 104 98 98 107 114 105 100 112 78 83 67 40 36 21 12 35 7 10 -5 28 13 -6 -12 70 134 75 141 58 13 137 122 42 51 69 70 61
10 26 50 64 71 60 93 132 126 125 106 96 87 85 104 102 127 94 64 57 41 33 23 -10 -13 28 88 77 8 -7 -23 66 95 155 356 215 38 -25 -15 97 6 45 51 51
8 31 54 63 73 89 126 129 114 121 137 124 78 96 98 110 105 84 77 53 40 18 14 14 51 70 44 91 134 28 36 4 11 173 249 220 79 50 13 -36 0 9 46 36
18 16 53 72 89 91 121 116 124 129 126 100 99 92 97 114 92 50 44 50 -10 -5 -13 7 37 38 60 61 140 83 7 -13 10 -12 134 188 79 142 74 33 49 77 24 67
18 18 58 93 102 82 110 101 115 115 112 92 87 113 101 78 63 26 3 20 7 7 17 45 18 -6 -18 -31 -28 -23 19 22 4 11 89 94 84 153 102 84 70 82 90 90
27 4 47 76 77 90 90 96 96 95 100 80 88 85 69 40 32 22 1 11 38 17 19 7 16 -8 -42 -33 -27 -11 -35 21 8 2 3 27 12 146 130 149 70 161 111 68
18 33 65 58 56 83 81 78 87 103 97 77 62 80 63 53 56 43 27 24 30 9 26 18 0 16 -3 17 20 -8 -22 6 20 6 4 50 20 86 76 52 11 54 20 50
49 47 50 49 43 61 76 80 54 99 86 56 66 91 111 93 78 48 26 36 41 16 23 9 10 11 33 34 42 47 76 50 26 10 -23 5 -6 43 52 110 74 62 55 161
72 29 22 46 45 57 86 66 50 84 71 47 62 48 47 41 35 28 30 38 52 39 21 28 38 19 30 22 38 61 43 44 16 28 -2 -2 60 40 70 69 77 35 61 18
71 45 14 48 45 44 47 84 56 52 80 66 49 2 -22 -26 -23 -3 24 42 44 60 37 35 29 45 20 45 57 9 51 28 17 17 36 28 23 75 76 71 23 98 12 -41
64 54 30 62 33 38 40 62 82 114 66 29 30 20 15 20 33 -2 9 20 20 44 50 31 7 34 13 38 46 35 52 43 -5 54 24 54 49 103 66 37 99 78 75 55
58 42 36 60 21 16 43 61 57 83 65 51 51 7 5 15 4 29 55 -1 32 30 29 13 12 18 -5 5 33 96 55 59 53 116 45 31 117 130 97 55 104 124 144 126
58 35 50 45 40 12 38 41 41 31 26 44 57 45 1 -18 -9 15 28 22 11 -17 25 10 14 2 -5 -16 13 29 -34 -18 13 62 50 34 46 110 90 76 133 214 185 181
55 11 32 43 25 28 70 57 30 28 28 14 3 19 -12 -13 11 21 53 45 9 37 27 15 -7 -20 -7 -14 17 5 16 0 -16 -34 2 47 26 99 123 93 91 143 115 146
31 12 25 34 40 97 94 64 48 38 39 16 18 -12 2 -1 40 62 68 49 58 50 26 19 13 15 -11 -22 30 -17 7 10 13 2 -23 -5 66 93 123 78 65 64 76 82
42 30 36 15 36 91 56 -11 25 18 61 22 5 -19 -16 8 21 33 76 51 39 26 29 21 19 0 -9 -31 17 43 8 -28 15 -21 -22 -27 4 57 82 91 87 148 150 117
54 50 65 73 105 68 23 19 -6 80 40 37 -11 -13 -3 15 7 29 10 34 29 30 21 38 18 7 -16 26 38 30 19 -17 -24 -67 -19 -19 5 29 50 71 98 118 156 134
60 116 140 92 57 35 54 35 20 23 4 -5 -49 -42 -18 -3 12 7 3 56 16 2 16 36 24 9 78 113 102 45 14 -5 -7 -19 -8 -8 -7 7 25 53 64 83 111 118
165 118 80 55 21 46 68 86 65 55 -1 -35 -21 39 25 -27 2 4 -17 -6 10 12 21 20 7 21 76 77 67 62 58 44 30 19 9 14 1 14 34 34 43 51 58 55
83 88 69 73 59 84 90 71 74 36 0 -14 1 2 9 -10 -7 -3 -14 -3 -23 6 36 -2 10 47 53 50 56 64 64 60 40 40 32 28 33 29 18 28 36 42 41 42
105 80 89 81 66 49 65 44 75 35 4 16 39 3 -12 -13 -18 -19 -6 2 25 -22 1 28 46 30 24 19 15 42 53 58 54 46 40 40 39 38 43 40 50 45 44 57
37 102 62 89 46 34 35 61 76 75 43 16 5 8 11 5 -14 -10 -4 -21 0 -17 5 45 30 44 41 33 17 18 33 39 40 35 26 26 33 34 30 24 26 28 44 61
108 131 64 32 34 44 50 57 68 90 79 37 12 7 10 2 3 -5 -7 -20 1 25 17 36 47 47 38 33 29 29 29 26 27 28 36 37 33 39 52 64 68 70 71 84
73 74 33 33 33 30 55 72 86 102 74 48 27 21 14 2 28 8 20 15 24 32 36 46 50 51 48 37 35 33 23 24 23 17 18 21 32 44 49 57 71 81 90 107
57 45 43 56 55 57 66 84 71 83 58 52 47 25 24 42 40 37 55 36 54 71 68 60 67 62 55 38 37 38 37 35 35 38 45 44 34 30 46 68 72 78 90 97
Wind_Speed
25 25 25 25 27 29 31 33 42 32 41 40 39 41 39 37 39 38 41 40 40 45 52 50 38 52 57 51 65 52 45 45 54 59 40 39 69 61 65 73 80 79 73 61
24 22 20 24 24 24 29 35 37 34 35 41 38 36 38 33 38 41 40 39 36 40 47 48 48 60 53 45 61 53 58 40 40 45 45 36 43 64 54 64 66 74 78 67
20 18 17 19 19 20 28 34 40 34 34 33 34 37 38 38 32 36 30 35 36 45 42 33 54 63 53 59 53 54 55 46 44 44 49 39 40 47 51 71 72 70 68 62
17 17 16 18 17 16 27 35 37 34 34 30 30 34 35 36 39 31 31 33 33 45 41 55 54 63 64 56 42 48 53 48 46 46 45 42 43 34 56 42 64 69 63 65
19 16 15 18 14 15 29 32 33 30 29 26 29 31 34 32 33 33 32 30 37 39 33 41 66 65 59 54 53 50 46 45 51 49 47 41 42 36 41 50 65 60 59 73
21 19 14 13 9 12 29 29 27 28 27 29 30 30 30 31 33 31 25 30 39 36 32 66 75 75 71 67 58 51 42 39 43 35 38 34 35 42 41 40 39 41 43 44
27 27 23 19 11 9 24 21 20 27 33 26 26 29 27 29 30 33 32 32 31 36 70 70 69 65 59 53 49 46 43 40 33 36 33 26 29 34 36 41 41 42 46 33
19 17 12 10 13 7 15 17 18 22 32 28 27 26 27 32 29 31 31 28 31 58 59 56 53 47 43 39 38 38 40 38 34 32 33 30 26 29 32 36 42 45 38 19
17 14 13 12 12 10 11 14 19 23 30 31 25 29 28 33 33 33 28 30 45 39 33 35 45 45 46 42 42 34 35 40 40 38 34 30 29 38 40 39 44 31 22 15
22 18 16 17 15 13 11 21 15 19 26 27 23 26 29 25 26 31 33 34 35 35 31 31 41 41 43 43 46 45 43 37 36 39 38 40 38 44 42 40 32 36 17 15
25 22 20 21 19 15 11 18 11 14 25 27 24 24 20 19 21 25 28 34 29 30 27 33 37 39 39 42 45 42 42 42 40 41 41 42 40 35 31 43 44 38 16 18
29 26 21 20 18 17 11 23 18 17 28 35 32 25 5 5 2 17 20 26 33 31 31 35 38 43 41 43 41 36 38 43 53 49 49 53 49 44 42 42 39 35 17 22
29 26 22 21 19 16 14 20 16 22 31 41 30 22 7 2 12 6 10 23 20 32 37 40 39 42 41 41 41 45 43 49 50 59 39 43 43 40 38 32 29 22 17 16
29 25 21 23 21 16 17 20 19 22 29 33 30 30 26 20 7 9 15 14 28 38 42 46 47 47 42 41 42 40 34 42 59 52 47 46 39 39 39 32 28 24 19 18
34 30 27 24 29 21 21 27 24 22 27 32 34 51 39 12 6 8 12 19 30 53 48 49 51 50 48 45 43 40 34 37 35 35 40 33 38 39 36 32 32 30 24 20
38 37 35 31 29 22 24 37 37 18 19 31 31 31 24 24 15 11 9 10 37 46 46 51 48 52 48 44 42 34 35 36 37 28 29 29 36 33 31 28 28 27 21 24
28 30 30 35 28 26 34 34 28 1 7 29 32 25 22 21 17 18 18 20 37 39 48 52 57 55 49 52 54 47 41 37 36 35 34 33 35 34 33 31 30 27 27 26
23 24 23 24 22 30 40 24 18 4 23 28 27 23 21 18 19 20 19 18 38 42 49 47 53 51 52 52 42 39 39 38 38 38 38 38 39 37 34 34 34 34 34 33
26 24 20 21 36 36 34 14 14 26 29 29 20 18 23 21 22 25 29 24 37 40 51 53 48 52 56 45 43 41 40 39 41 42 41 40 39 39 38 38 38 38 39 37
27 28 39 40 37 22 7 23 35 41 31 26 16 14 18 18 18 21 34 23 36 37 42 29 48 56 35 38 39 43 44 46 46 44 43 41 41 41 40 39 40 39 40 40
44 45 42 28 20 30 35 47 50 37 32 11 11 40 36 43 12 39 36 36 34 38 34 34 43 44 40 36 38 39 42 43 43 41 41 41 38 37 38 38 38 38 38 39
53 38 32 36 36 42 47 49 43 38 30 14 17 14 47 45 46 39 31 35 40 38 21 35 38 33 31 33 35 38 40 41 41 40 41 40 39 38 38 39 40 40 40 40
46 44 41 40 42 50 55 55 38 30 13 15 17 35 43 46 42 39 36 33 38 35 38 32 33 26 30 33 36 36 37 37 37 37 37 38 39 40 40 40 42 41 39 40
48 48 49 44 51 49 42 46 34 24 21 12 24 31 37 43 43 40 37 35 37 41 38 32 29 25 29 32 34 35 36 35 35 36 36 37 38 39 39 38 39 38 38 39
39 41 48 46 35 33 30 24 19 21 27 22 29 36 38 42 42 38 39 37 35 34 35 31 24 26 30 34 35 35 35 35 36 36 37 38 38 38 39 41 41 40 39 38
33 35 37 34 34 29 26 22 18 29 34 34 38 39 40 44 38 40 39 40 38 31 29 27 27 30 33 36 36 35 37 37 38 39 39 39 39 40 40 40 41 41 40 39
33 35 31 31 29 29 26 28 29 34 36 45 40 44 40 32 30 33 38 39 35 25 25 28 30 33 36 38 38 37 38 39 41 41 41 41 40 40 41 42 43 41 41 40
Wind_Direction
281 288 292 302 311 320 327 329 324 337 340 338 343 341 346 353 354 2 354 354 353 351 354 351 347 303 285 286 305 293 317 280 261 242 292 277 246 244 237 239 243 249 256 255
280 283 292 300 310 322 325 324 328 336 338 330 336 344 344 354 353 356 359 357 0 358 353 357 303 279 278 282 305 305 315 282 301 281 266 285 261 245 245 246 251 246 246 251
279 284 291 301 311 321 323 321 319 331 332 336 338 339 341 346 358 353 3 356 0 356 353 360 295 279 283 290 290 305 316 287 287 284 269 253 250 247 256 247 247 248 246 246
278 280 288 295 304 316 321 318 317 324 324 330 336 340 345 345 348 360 0 359 359 358 358 344 295 285 287 290 281 293 308 291 285 278 271 258 240 247 223 259 249 248 250 253
276 278 280 288 293 309 314 315 318 323 330 338 330 339 343 344 349 350 350 349 352 349 351 345 281 283 280 274 279 287 285 286 293 279 253 271 243 248 239 218 201 251 258 253
269 274 273 274 271 299 310 317 327 329 328 327 330 333 341 348 352 353 349 350 345 344 347 295 281 275 267 260 261 271 264 272 290 271 283 271 255 261 257 252 254 260 260 263
262 273 268 265 238 277 315 327 340 325 320 326 329 340 344 342 343 338 338 341 340 342 295 280 282 276 264 260 260 253 265 260 258 262 275 271 273 288 271 266 269 266 263 270
247 260 239 235 184 202 319 331 333 332 319 326 328 332 334 337 341 336 336 343 348 314 311 311 298 281 276 281 283 285 263 257 257 271 275 261 310 301 283 274 269 272 267 273
238 241 231 236 211 209 299 320 325 329 326 326 329 332 335 333 339 343 348 351 330 336 343 340 311 282 281 277 283 300 292 268 268 278 282 284 308 286 279 255 215 227 271 277
241 240 244 245 239 208 271 310 313 325 324 328 343 340 343 353 352 345 346 349 344 336 344 336 305 290 286 274 273 277 284 281 278 285 285 278 284 287 275 236 262 258 299 295
235 242 254 247 237 207 254 301 303 319 324 326 337 337 335 338 344 344 356 349 348 342 350 321 303 294 299 283 285 281 280 278 285 288 283 264 297 278 273 268 273 265 322 264
235 244 249 236 233 199 234 299 303 308 317 327 335 341 164 185 33 351 358 343 335 332 326 299 291 281 288 294 277 306 284 296 280 277 268 272 282 273 274 274 263 262 310 298
229 237 239 233 226 207 237 291 309 307 315 316 321 331 344 173 186 158 359 341 347 313 291 280 279 271 271 272 281 294 302 310 293 285 287 288 289 287 290 276 288 287 322 342
224 227 229 226 228 220 243 279 291 303 317 327 336 329 326 346 50 151 175 173 318 287 276 261 257 255 252 242 242 246 238 289 307 288 287 292 302 291 288 302 304 306 302 320
227 229 225 234 234 233 250 275 282 297 305 331 323 297 318 348 20 85 134 150 168 223 254 253 249 246 245 238 249 230 266 294 302 301 300 291 304 297 288 295 295 302 298 318
224 228 230 230 228 218 256 270 277 291 310 314 324 326 348 359 51 88 88 102 245 254 257 249 255 247 238 243 233 270 296 300 321 282 280 307 298 301 291 294 298 304 297 323
212 222 228 228 212 227 250 271 294 196 304 292 307 341 18 30 28 3 329 307 273 269 253 249 242 247 252 253 237 262 289 297 305 308 305 281 311 288 290 281 277 293 314 315
201 223 218 208 205 242 251 290 320 59 267 290 313 1 21 55 25 2 330 314 268 266 252 260 251 255 252 240 260 282 283 271 304 308 320 313 301 296 286 280 280 297 297 305
202 202 187 209 235 240 251 263 290 271 269 288 337 28 14 16 334 317 116 135 277 274 254 254 256 249 237 254 264 274 278 272 278 283 305 308 305 297 289 289 288 285 287 286
182 188 219 228 233 238 235 259 247 245 275 296 346 47 356 35 19 4 287 315 279 281 273 297 256 247 279 289 291 285 287 287 287 282 282 288 299 299 289 285 310 295 287 286
204 211 218 236 204 230 238 230 226 247 274 23 36 180 168 206 138 192 197 241 295 285 288 275 257 256 270 292 296 305 304 308 305 301 292 291 281 276 296 303 310 310 299 292
199 204 205 206 223 228 225 222 235 250 274 40 51 187 186 200 200 187 171 207 217 267 298 265 262 280 290 301 307 312 314 313 311 328 305 299 299 288 284 290 296 300 300 302
194 199 208 219 223 216 216 217 241 262 351 50 320 240 218 206 187 195 190 167 182 226 236 275 279 292 296 302 304 315 323 328 329 327 335 331 325 326 329 325 319 321 326 321
194 207 211 214 213 220 233 233 252 279 292 9 265 256 241 216 206 216 219 207 229 190 257 286 295 334 341 324 314 324 332 335 334 331 338 338 336 337 343 347 341 346 341 333
210 213 208 217 232 241 251 260 276 284 265 285 267 253 248 231 224 247 236 247 266 280 269 303 335 345 338 326 323 329 333 336 337 338 337 337 342 342 342 341 341 341 339 343
218 216 213 224 230 244 259 280 300 277 263 262 255 248 246 227 259 254 263 263 274 308 316 324 335 336 337 328 332 335 325 324 327 330 331 333 333 334 335 336 335 334 336 339
212 214 222 230 249 261 283 286 280 271 260 241 251 242 252 293 301 296 289 288 307 338 340 337 338 336 332 326 329 332 330 325 324 326 328 328 328 327 326 329 328 330 332 333